Time,TemperatureF,DewpointF,PressureIn,WindDirection,WindDirectionDegrees,WindSpeedMPH,WindSpeedGustMPH,Humidity,HourlyPrecipIn,Conditions,Clouds,dailyrainin,SoftwareType,DateUTC
2013-09-26 00:13:00,61.0,58.0,29.88,NE,35,0.0,0.0,91,0.00,,,0.00,,2013-09-26 04:13:00,
2013-09-26 00:24:00,61.0,58.0,29.88,NE,35,0.0,0.0,91,0.00,,,0.00,,2013-09-26 04:24:00,
2013-09-26 00:54:00,60.0,58.0,29.89,NE,35,0.0,0.0,93,0.00,,,0.00,,2013-09-26 04:54:00,
2013-09-26 01:03:00,60.0,58.0,29.89,NE,35,0.0,0.0,93,0.00,,,0.00,,2013-09-26 05:03:00,
2013-09-26 01:12:00,60.0,58.0,29.89,NE,35,0.0,0.0,93,0.00,,,0.00,,2013-09-26 05:12:00,
2013-09-26 01:23:00,60.0,58.0,29.89,NE,35,0.0,0.0,93,0.00,,,0.00,,2013-09-26 05:23:00,
2013-09-26 02:13:00,59.0,57.0,29.90,NE,35,0.0,0.0,94,0.00,,,0.00,,2013-09-26 06:13:00,
2013-09-26 02:22:00,59.0,58.0,29.90,NE,35,0.0,0.0,95,0.00,,,0.00,,2013-09-26 06:22:00,
2013-09-26 02:33:00,59.0,58.0,29.90,NE,35,0.0,0.0,95,0.00,,,0.00,,2013-09-26 06:33:00,
2013-09-26 02:42:00,59.0,58.0,29.90,NE,35,0.0,0.0,95,0.00,,,0.00,,2013-09-26 06:42:00,
2013-09-26 02:53:00,59.0,58.0,29.90,NE,35,0.0,0.0,95,0.00,,,0.00,,2013-09-26 06:53:00,
2013-09-26 03:12:00,58.0,56.0,29.90,NE,35,0.0,0.0,94,0.00,,,0.00,,2013-09-26 07:12:00,
2013-09-26 03:22:00,58.0,56.0,29.90,NE,35,0.0,0.0,94,0.00,,,0.00,,2013-09-26 07:22:00,
2013-09-26 03:42:00,57.0,55.0,29.91,NE,35,0.0,0.0,94,0.00,,,0.00,,2013-09-26 07:42:00,
2013-09-26 03:53:00,56.0,54.0,29.91,NE,35,0.0,0.0,94,0.00,,,0.00,,2013-09-26 07:53:00,
2013-09-26 04:03:00,56.0,54.0,29.91,NE,35,0.0,0.0,94,0.00,,,0.00,,2013-09-26 08:03:00,
2013-09-26 04:11:00,56.0,54.0,29.91,NE,35,0.0,0.0,94,0.00,,,0.00,,2013-09-26 08:11:00,
2013-09-26 04:22:00,56.0,54.0,29.91,NE,35,0.0,0.0,94,0.00,,,0.00,,2013-09-26 08:22:00,
2013-09-26 04:42:00,55.0,53.0,29.91,NE,35,0.0,0.0,94,0.00,,,0.00,,2013-09-26 08:42:00,
2013-09-26 04:52:00,55.0,53.0,29.91,NE,35,0.0,0.0,94,0.00,,,0.00,,2013-09-26 08:52:00,
2013-09-26 05:11:00,55.0,54.0,29.91,NE,35,0.0,0.0,95,0.00,,,0.00,,2013-09-26 09:11:00,
2013-09-26 05:22:00,55.0,54.0,29.91,NE,35,0.0,0.0,95,0.00,,,0.00,,2013-09-26 09:22:00,
2013-09-26 05:43:00,55.0,54.0,29.93,NE,34,0.0,0.0,95,0.00,,,0.00,,2013-09-26 09:43:00,
2013-09-26 05:54:00,54.0,53.0,29.93,NE,35,0.0,0.0,95,0.00,,,0.00,,2013-09-26 09:54:00,
2013-09-26 06:12:00,54.0,53.0,29.93,NE,35,0.0,0.0,95,0.00,,,0.00,,2013-09-26 10:12:00,
2013-09-26 06:23:00,54.0,53.0,29.93,NE,34,0.0,0.0,95,0.00,,,0.00,,2013-09-26 10:23:00,
2013-09-26 06:42:00,54.0,53.0,29.94,NE,35,0.0,0.0,95,0.00,,,0.00,,2013-09-26 10:42:00,
2013-09-26 06:53:00,53.0,51.0,29.94,NE,35,0.0,0.0,94,0.00,,,0.00,,2013-09-26 10:53:00,
2013-09-26 07:12:00,53.0,51.0,29.94,NE,35,0.0,0.0,94,0.00,,,0.00,,2013-09-26 11:12:00,
2013-09-26 07:22:00,53.0,52.0,29.96,NE,35,0.0,0.0,95,0.00,,,0.00,,2013-09-26 11:22:00,
2013-09-26 07:42:00,52.0,51.0,29.96,NE,35,0.0,0.0,95,0.00,,,0.00,,2013-09-26 11:42:00,
2013-09-26 07:52:00,52.0,51.0,29.96,NE,35,0.0,0.0,95,0.00,,,0.00,,2013-09-26 11:52:00,
2013-09-26 08:12:00,52.0,51.0,29.97,NE,35,0.0,0.0,95,0.00,,,0.00,,2013-09-26 12:12:00,
2013-09-26 08:22:00,52.0,51.0,29.97,NE,35,0.0,0.0,96,0.00,,,0.00,,2013-09-26 12:22:00,
2013-09-26 08:42:00,53.0,52.0,29.98,NE,35,0.0,0.0,96,0.00,,,0.00,,2013-09-26 12:42:00,
2013-09-26 08:52:00,54.0,53.0,29.98,NNE,33,0.0,0.0,96,0.00,,,0.00,,2013-09-26 12:52:00,
2013-09-26 09:11:00,54.0,53.0,29.99,NE,35,0.0,0.0,96,0.00,,,0.00,,2013-09-26 13:11:00,
2013-09-26 09:22:00,54.0,53.0,29.99,NE,35,0.0,0.0,97,0.00,,,0.00,,2013-09-26 13:22:00,
2013-09-26 09:52:00,56.0,55.0,30.00,NE,35,0.0,0.0,96,0.00,,,0.00,,2013-09-26 13:52:00,
2013-09-26 10:02:00,56.0,55.0,30.00,NE,35,0.0,0.0,96,0.00,,,0.00,,2013-09-26 14:02:00,
2013-09-26 10:11:00,56.0,55.0,30.00,NE,35,0.0,0.0,96,0.00,,,0.00,,2013-09-26 14:11:00,
2013-09-26 10:22:00,58.0,56.0,30.01,NE,35,0.0,0.0,92,0.00,,,0.00,,2013-09-26 14:22:00,
2013-09-26 10:42:00,60.0,56.0,30.02,NE,35,0.0,0.0,88,0.00,,,0.00,,2013-09-26 14:42:00,
2013-09-26 10:52:00,61.0,57.0,30.02,NNE,33,0.0,0.0,87,0.00,,,0.00,,2013-09-26 14:52:00,
2013-09-26 11:11:00,63.0,58.0,30.02,NNE,27,0.0,0.0,85,0.00,,,0.00,,2013-09-26 15:11:00,
2013-09-26 11:22:00,63.0,58.0,30.02,NNE,27,0.0,0.0,85,0.00,,,0.00,,2013-09-26 15:22:00,
2013-09-26 11:44:00,65.0,57.0,30.02,NE,42,0.0,0.0,76,0.00,,,0.00,,2013-09-26 15:44:00,
2013-09-26 11:54:00,65.0,57.0,30.02,NE,42,0.0,0.0,76,0.00,,,0.00,,2013-09-26 15:54:00,
2013-09-26 12:13:00,68.0,57.0,30.02,NNE,31,0.0,0.0,68,0.00,,,0.00,,2013-09-26 16:13:00,
2013-09-26 12:24:00,69.0,59.0,30.02,NNE,31,0.0,0.0,71,0.00,,,0.00,,2013-09-26 16:24:00,
2013-09-26 12:33:00,69.0,59.0,30.02,NNE,31,0.0,0.0,71,0.00,,,0.00,,2013-09-26 16:33:00,
2013-09-26 12:43:00,69.0,59.0,30.02,NNE,31,0.0,0.0,71,0.00,,,0.00,,2013-09-26 16:43:00,
2013-09-26 12:53:00,72.0,57.0,30.02,NNE,14,0.0,0.0,59,0.00,,,0.00,,2013-09-26 16:53:00,
2013-09-26 13:12:00,72.0,57.0,30.01,NE,34,0.0,0.0,59,0.00,,,0.00,,2013-09-26 17:12:00,
2013-09-26 13:23:00,74.0,57.0,30.01,North,4,0.0,0.0,55,0.00,,,0.00,,2013-09-26 17:23:00,
2013-09-26 13:52:00,75.0,58.0,30.01,NE,34,0.0,0.0,55,0.00,,,0.00,,2013-09-26 17:52:00,
2013-09-26 14:13:00,76.0,57.0,30.00,NE,39,0.0,0.0,51,0.00,,,0.00,,2013-09-26 18:13:00,
2013-09-26 14:22:00,76.0,57.0,30.00,NE,39,0.0,0.0,51,0.00,,,0.00,,2013-09-26 18:22:00,
2013-09-26 14:42:00,77.0,57.0,29.99,NE,47,0.0,0.0,50,0.00,,,0.00,,2013-09-26 18:42:00,
2013-09-26 14:52:00,77.0,56.0,29.99,NE,35,0.0,0.0,49,0.00,,,0.00,,2013-09-26 18:52:00,
2013-09-26 15:12:00,78.0,56.0,29.99,NNE,23,0.0,0.0,46,0.00,,,0.00,,2013-09-26 19:12:00,
2013-09-26 15:22:00,78.0,56.0,29.99,NNE,23,0.0,0.0,46,0.00,,,0.00,,2013-09-26 19:22:00,
2013-09-26 15:52:00,78.0,56.0,29.98,ENE,65,0.0,0.0,47,0.00,,,0.00,,2013-09-26 19:52:00,
2013-09-26 16:12:00,78.0,57.0,29.98,NE,49,0.0,0.0,49,0.00,,,0.00,,2013-09-26 20:12:00,
2013-09-26 16:22:00,78.0,57.0,29.98,NE,35,0.0,0.0,49,0.00,,,0.00,,2013-09-26 20:22:00,
2013-09-26 16:42:00,78.0,57.0,29.98,NNE,31,0.0,0.0,48,0.00,,,0.00,,2013-09-26 20:42:00,
2013-09-26 16:52:00,78.0,57.0,29.98,NE,39,0.0,0.0,48,0.00,,,0.00,,2013-09-26 20:52:00,
2013-09-26 17:12:00,78.0,58.0,29.98,NE,46,0.0,0.0,50,0.00,,,0.00,,2013-09-26 21:12:00,
2013-09-26 17:23:00,78.0,57.0,29.98,NE,48,0.0,0.0,49,0.00,,,0.00,,2013-09-26 21:23:00,
2013-09-26 17:54:00,78.0,57.0,29.98,NNE,25,0.0,0.0,48,0.00,,,0.00,,2013-09-26 21:54:00,
2013-09-26 18:24:00,77.0,56.0,29.98,NW,322,0.0,0.0,49,0.00,,,0.00,,2013-09-26 22:24:00,
2013-09-26 18:43:00,76.0,56.0,29.99,NNE,32,0.0,0.0,50,0.00,,,0.00,,2013-09-26 22:43:00,
2013-09-26 18:54:00,76.0,56.0,29.99,NNE,32,0.0,0.0,50,0.00,,,0.00,,2013-09-26 22:54:00,
2013-09-26 19:12:00,75.0,58.0,29.99,NNE,24,0.0,0.0,55,0.00,,,0.00,,2013-09-26 23:12:00,
2013-09-26 19:23:00,75.0,58.0,29.99,NNE,24,0.0,0.0,55,0.00,,,0.00,,2013-09-26 23:23:00,
2013-09-26 19:34:00,75.0,58.0,29.99,NNE,24,0.0,0.0,55,0.00,,,0.00,,2013-09-26 23:34:00,
2013-09-26 19:53:00,71.0,59.0,30.00,NNE,24,0.0,0.0,66,0.00,,,0.00,,2013-09-26 23:53:00,
2013-09-26 20:22:00,68.0,58.0,30.00,NNE,24,0.0,0.0,70,0.00,,,0.00,,2013-09-27 00:22:00,
2013-09-26 20:43:00,66.0,57.0,30.00,NNE,24,0.0,0.0,73,0.00,,,0.00,,2013-09-27 00:43:00,
2013-09-26 20:52:00,66.0,57.0,30.00,NNE,24,0.0,0.0,73,0.00,,,0.00,,2013-09-27 00:52:00,
2013-09-26 21:01:00,66.0,57.0,30.00,NNE,24,0.0,0.0,73,0.00,,,0.00,,2013-09-27 01:01:00,
2013-09-26 21:12:00,66.0,57.0,30.00,NNE,24,0.0,0.0,73,0.00,,,0.00,,2013-09-27 01:12:00,
2013-09-26 21:23:00,63.0,56.0,30.01,NNE,24,0.0,0.0,77,0.00,,,0.00,,2013-09-27 01:23:00,
2013-09-26 21:42:00,62.0,56.0,30.02,NNE,24,0.0,0.0,81,0.00,,,0.00,,2013-09-27 01:42:00,
2013-09-26 21:52:00,62.0,56.0,30.02,NNE,24,0.0,0.0,81,0.00,,,0.00,,2013-09-27 01:52:00,
2013-09-26 22:12:00,60.0,55.0,30.03,NNE,24,0.0,0.0,83,0.00,,,0.00,,2013-09-27 02:12:00,
2013-09-26 22:22:00,60.0,55.0,30.03,NNE,23,0.0,0.0,83,0.00,,,0.00,,2013-09-27 02:22:00,
2013-09-26 22:42:00,59.0,55.0,30.03,NNE,23,0.0,0.0,86,0.00,,,0.00,,2013-09-27 02:42:00,
2013-09-26 22:53:00,59.0,55.0,30.03,NNE,23,0.0,0.0,86,0.00,,,0.00,,2013-09-27 02:53:00,
2013-09-26 23:22:00,57.0,53.0,30.04,NNE,24,0.0,0.0,88,0.00,,,0.00,,2013-09-27 03:22:00,
2013-09-26 23:44:00,57.0,54.0,30.04,NNE,24,0.0,0.0,89,0.00,,,0.00,,2013-09-27 03:44:00,
2013-09-26 23:55:00,57.0,54.0,30.04,NNE,24,0.0,0.0,89,0.00,,,0.00,,2013-09-27 03:55:00,